Precipitable_Water
0.37 0.34 0.25 0.27 0.29 0.31 0.31 0.31 0.33 0.40 0.44 0.44 0.43 0.44 0.46 0.54 0.55 0.58 0.64 0.66 0.55 0.52 0.51 0.45 0.41 0.81 1.04 1.31 1.46 1.42 1.73 1.64 1.57 1.45 1.35 1.36 1.43 1.56 1.57 1.32 1.18 1.02 1.01 0.97
0.32 0.29 0.27 0.30 0.29 0.30 0.30 0.30 0.31 0.40 0.46 0.45 0.43 0.44 0.50 0.54 0.59 0.61 0.57 0.64 0.71 0.63 0.61 0.53 0.45 0.50 0.83 1.20 1.52 1.62 1.72 1.65 1.59 1.53 1.48 1.34 1.43 1.60 1.51 1.38 1.29 1.07 1.03 1.00
0.24 0.28 0.25 0.25 0.27 0.25 0.29 0.29 0.30 0.34 0.41 0.48 0.41 0.43 0.47 0.56 0.61 0.65 0.67 0.68 0.70 0.77 0.63 0.61 0.59 0.52 0.71 0.95 1.18 1.63 1.83 1.63 1.63 1.70 1.54 1.33 1.39 1.51 1.48 1.42 1.37 1.16 1.09 1.01
0.26 0.27 0.24 0.23 0.24 0.27 0.25 0.33 0.39 0.38 0.36 0.31 0.44 0.32 0.47 0.50 0.55 0.60 0.65 0.71 0.71 0.76 0.81 0.68 0.61 0.56 0.62 0.83 1.14 1.48 1.68 1.69 1.73 1.72 1.56 1.30 1.20 1.33 1.53 1.49 1.46 1.34 1.20 1.11
0.27 0.22 0.22 0.23 0.23 0.29 0.24 0.37 0.40 0.39 0.37 0.40 0.38 0.35 0.42 0.49 0.47 0.56 0.64 0.70 0.70 0.69 0.84 0.79 0.67 0.60 0.56 0.75 1.06 1.32 1.36 1.77 1.66 1.70 1.56 1.41 1.34 1.44 1.51 1.51 1.47 1.45 1.39 1.31
0.24 0.27 0.25 0.26 0.27 0.32 0.33 0.33 0.39 0.41 0.39 0.32 0.35 0.37 0.36 0.40 0.53 0.62 0.72 0.70 0.70 0.72 0.74 0.87 0.80 0.68 0.60 0.78 1.00 1.13 1.13 1.26 1.64 1.62 1.55 1.41 1.34 1.37 1.42 1.47 1.49 1.49 1.48 1.45
0.27 0.26 0.25 0.28 0.26 0.32 0.30 0.28 0.24 0.24 0.25 0.25 0.38 0.38 0.42 0.52 0.64 0.71 0.72 0.71 0.71 0.73 0.76 0.79 0.85 0.69 0.67 0.88 0.95 1.04 1.19 1.18 1.52 1.37 1.42 1.45 1.46 1.51 1.47 1.43 1.41 1.41 1.42 1.43
0.24 0.23 0.22 0.25 0.28 0.25 0.30 0.31 0.21 0.15 0.17 0.24 0.37 0.32 0.40 0.57 0.69 0.76 0.82 0.77 0.78 0.76 0.78 0.80 1.02 0.84 0.82 0.86 0.95 0.98 1.08 1.18 1.34 1.43 1.45 1.44 1.45 1.40 1.37 1.35 1.36 1.33 1.36 1.41
0.26 0.25 0.24 0.23 0.32 0.31 0.27 0.24 0.36 0.26 0.32 0.31 0.27 0.32 0.57 0.56 0.60 0.67 0.77 0.79 0.75 0.76 0.79 0.83 0.89 0.92 0.91 0.95 1.02 1.07 1.10 1.18 1.28 1.35 1.34 1.36 1.35 1.35 1.32 1.31 1.29 1.31 1.35 1.36
0.34 0.23 0.24 0.21 0.31 0.34 0.30 0.34 0.27 0.32 0.19 0.20 0.23 0.22 0.26 0.43 0.49 0.62 0.72 0.78 0.83 0.83 0.83 0.89 0.91 0.95 1.00 1.03 1.08 1.12 1.13 1.11 1.13 1.18 1.23 1.22 1.29 1.34 1.33 1.33 1.28 1.29 1.31 1.34
0.34 0.29 0.26 0.26 0.24 0.24 0.28 0.27 0.28 0.34 0.27 0.22 0.21 0.22 0.31 0.40 0.47 0.53 0.70 0.81 0.83 0.93 0.93 0.95 0.99 1.01 1.04 1.06 1.08 1.10 1.08 1.13 1.16 1.18 1.20 1.23 1.23 1.27 1.31 1.31 1.32 1.33 1.33 1.29
0.36 0.33 0.24 0.23 0.26 0.30 0.27 0.25 0.26 0.21 0.20 0.27 0.27 0.26 0.35 0.41 0.57 0.56 0.65 0.70 0.82 0.93 1.01 1.03 1.04 1.09 1.07 1.03 1.04 1.07 1.09 1.09 1.13 1.17 1.15 1.13 1.17 1.23 1.20 1.19 1.18 1.22 1.21 1.20
0.40 0.31 0.25 0.24 0.31 0.31 0.22 0.21 0.23 0.24 0.30 0.24 0.18 0.21 0.35 0.39 0.57 0.64 0.69 0.71 0.75 0.78 0.87 0.96 1.01 1.03 1.05 1.07 1.09 1.09 1.12 1.12 1.12 1.12 1.12 1.07 1.06 1.01 0.94 0.95 0.93 0.88 0.83 0.83
0.42 0.36 0.30 0.25 0.26 0.28 0.26 0.22 0.21 0.21 0.22 0.21 0.19 0.15 0.27 0.33 0.40 0.52 0.62 0.70 0.75 0.83 0.80 0.83 0.88 0.92 0.98 1.01 0.98 0.94 0.93 0.99 0.96 0.91 0.93 0.89 0.83 0.81 0.78 0.76 0.69 0.64 0.62 0.60
0.41 0.33 0.31 0.31 0.31 0.30 0.29 0.24 0.19 0.19 0.24 0.21 0.21 0.19 0.20 0.30 0.38 0.47 0.54 0.57 0.61 0.78 0.76 0.74 0.75 0.73 0.74 0.79 0.80 0.78 0.78 0.79 0.77 0.73 0.72 0.66 0.62 0.60 0.56 0.53 0.50 0.49 0.48 0.47
0.38 0.31 0.29 0.28 0.32 0.31 0.30 0.31 0.26 0.24 0.27 0.27 0.24 0.22 0.24 0.33 0.36 0.41 0.48 0.50 0.51 0.55 0.58 0.60 0.59 0.57 0.57 0.57 0.56 0.56 0.56 0.56 0.56 0.54 0.52 0.50 0.48 0.46 0.44 0.44 0.42 0.39 0.37 0.33
0.36 0.33 0.31 0.25 0.29 0.30 0.28 0.29 0.26 0.25 0.29 0.28 0.20 0.27 0.30 0.30 0.32 0.35 0.42 0.46 0.46 0.48 0.50 0.49 0.49 0.49 0.49 0.49 0.48 0.46 0.46 0.45 0.43 0.42 0.42 0.42 0.42 0.40 0.36 0.33 0.30 0.27 0.26 0.27
0.36 0.34 0.33 0.27 0.29 0.23 0.30 0.33 0.33 0.30 0.30 0.30 0.27 0.29 0.32 0.33 0.35 0.38 0.41 0.44 0.46 0.47 0.47 0.47 0.47 0.46 0.45 0.44 0.43 0.42 0.41 0.39 0.38 0.39 0.40 0.37 0.33 0.30 0.29 0.27 0.26 0.26 0.27 0.27
0.39 0.36 0.31 0.28 0.26 0.29 0.32 0.34 0.33 0.30 0.28 0.33 0.30 0.32 0.33 0.36 0.35 0.34 0.40 0.43 0.44 0.44 0.45 0.45 0.47 0.47 0.45 0.42 0.42 0.40 0.38 0.38 0.38 0.37 0.33 0.30 0.29 0.27 0.26 0.25 0.26 0.27 0.27 0.27
0.38 0.38 0.33 0.32 0.26 0.23 0.32 0.34 0.38 0.39 0.29 0.37 0.35 0.34 0.35 0.35 0.25 0.29 0.37 0.40 0.43 0.44 0.44 0.44 0.46 0.46 0.44 0.43 0.43 0.40 0.38 0.37 0.36 0.33 0.28 0.28 0.28 0.26 0.24 0.25 0.26 0.28 0.27 0.26
0.34 0.35 0.32 0.32 0.31 0.32 0.37 0.38 0.38 0.28 0.34 0.38 0.37 0.38 0.37 0.32 0.37 0.45 0.42 0.40 0.43 0.44 0.43 0.45 0.45 0.44 0.45 0.45 0.44 0.41 0.41 0.39 0.38 0.33 0.29 0.28 0.29 0.25 0.25 0.26 0.26 0.24 0.23 0.24
0.34 0.33 0.33 0.34 0.30 0.26 0.40 0.38 0.32 0.40 0.41 0.40 0.39 0.40 0.40 0.41 0.43 0.41 0.42 0.45 0.46 0.45 0.44 0.44 0.44 0.45 0.46 0.46 0.45 0.43 0.42 0.42 0.39 0.33 0.30 0.28 0.29 0.23 0.24 0.25 0.24 0.23 0.23 0.21
0.32 0.37 0.37 0.36 0.35 0.43 0.43 0.42 0.42 0.43 0.43 0.42 0.42 0.44 0.45 0.44 0.44 0.44 0.45 0.48 0.49 0.50 0.48 0.47 0.46 0.46 0.47 0.47 0.47 0.44 0.45 0.43 0.38 0.31 0.30 0.28 0.27 0.23 0.21 0.20 0.21 0.21 0.20 0.19
0.40 0.44 0.40 0.39 0.39 0.41 0.43 0.45 0.45 0.47 0.47 0.48 0.47 0.47 0.48 0.46 0.48 0.47 0.48 0.50 0.52 0.53 0.52 0.52 0.49 0.47 0.47 0.49 0.48 0.48 0.47 0.43 0.37 0.30 0.30 0.29 0.25 0.19 0.19 0.21 0.20 0.19 0.19 0.19
0.38 0.42 0.40 0.39 0.42 0.44 0.44 0.46 0.48 0.50 0.52 0.51 0.51 0.49 0.49 0.51 0.51 0.51 0.52 0.53 0.55 0.55 0.55 0.54 0.51 0.49 0.48 0.50 0.49 0.50 0.47 0.43 0.35 0.30 0.30 0.28 0.25 0.17 0.18 0.19 0.19 0.19 0.20 0.19
0.40 0.41 0.39 0.37 0.44 0.44 0.43 0.48 0.50 0.48 0.50 0.55 0.51 0.49 0.48 0.47 0.49 0.54 0.55 0.56 0.57 0.57 0.57 0.56 0.55 0.53 0.52 0.52 0.51 0.50 0.48 0.43 0.35 0.30 0.27 0.27 0.23 0.18 0.18 0.18 0.18 0.20 0.19 0.19
Wind_Speed
11 12 13 15 16 16 16 16 16 15 12 15 15 14 10 12 12 13 16 18 19 21 22 23 24 30 33 34 37 43 34 34 32 30 27 27 26 25 24 24 24 24 24 23
8 9 13 14 16 17 18 16 16 12 10 13 18 8 8 13 15 15 15 16 19 22 23 23 24 27 32 34 32 36 35 30 30 26 26 26 26 26 25 24 25 25 26 25
10 10 13 14 16 18 18 15 18 15 16 10 21 7 10 18 18 16 17 16 18 19 22 24 22 25 30 33 32 32 25 31 29 26 25 24 25 24 23 24 25 26 27 27
9 9 12 14 15 18 15 21 16 11 12 12 17 11 10 20 19 20 18 17 16 17 20 22 24 24 27 30 31 28 28 29 30 29 25 26 26 25 24 25 25 28 29 29
8 10 12 13 16 16 15 18 13 11 11 12 18 13 11 22 20 23 20 16 12 13 17 20 22 24 25 27 29 26 24 20 28 26 24 25 23 23 23 25 26 29 31 33
9 8 9 12 16 12 17 16 8 10 9 8 19 14 14 20 20 21 20 17 11 9 10 16 20 22 22 23 26 26 23 23 24 24 22 23 21 24 24 23 25 26 30 32
8 5 8 11 15 9 19 18 10 10 11 12 19 13 15 19 20 19 19 16 8 4 6 9 17 20 20 19 21 23 21 20 15 18 18 22 18 20 21 23 23 26 25 28
8 4 8 11 11 12 13 14 11 9 12 12 14 17 16 17 16 18 20 17 11 5 4 9 11 15 15 16 17 19 19 19 17 16 14 14 14 12 13 16 18 16 17 19
8 5 5 9 9 12 13 13 12 9 8 9 10 17 13 18 19 20 19 19 15 11 10 11 11 12 13 14 14 15 16 17 16 14 13 13 14 12 11 9 7 6 7 7
7 7 5 8 7 7 10 11 9 9 11 11 11 15 17 19 18 18 18 16 15 12 11 12 11 10 11 11 12 12 11 12 11 11 11 10 9 8 7 7 5 5 5 6
8 6 4 7 6 9 8 9 10 8 10 10 11 12 17 18 14 14 16 16 14 12 11 11 10 10 10 10 10 10 9 9 8 7 7 7 6 6 7 7 8 10 9 9
8 8 8 7 6 6 7 8 10 9 11 9 7 10 15 16 13 13 13 12 13 13 13 12 11 10 10 9 9 9 8 7 7 6 5 5 6 6 6 4 4 4 5 6
8 6 8 3 5 5 6 7 8 9 7 8 8 9 11 13 12 13 13 11 10 10 11 11 11 9 8 8 7 7 6 6 7 6 5 4 4 3 2 2 2 3 3 4
9 9 10 10 10 10 11 10 6 8 6 10 6 9 8 8 8 9 10 11 11 9 9 10 9 8 9 8 7 7 7 5 6 5 4 2 4 2 1 2 3 4 5 6
9 10 11 12 13 13 13 12 10 9 8 7 9 8 7 5 5 6 7 7 9 10 10 10 10 10 10 10 8 7 6 5 4 4 4 2 3 4 4 4 6 7 8 9
8 10 11 14 9 9 11 10 9 9 9 9 10 9 4 2 2 3 4 5 6 7 8 8 8 8 8 7 7 6 5 4 2 2 2 3 4 5 6 7 8 9 10 12
9 10 10 9 8 12 12 7 9 9 7 7 6 4 1 1 1 1 2 3 4 5 5 5 5 5 5 4 3 2 2 1 1 2 3 4 6 7 8 9 10 11 12 12
11 10 10 11 13 8 6 6 6 8 8 8 7 5 4 3 3 3 3 4 4 4 4 4 4 3 2 2 1 1 2 2 3 4 5 7 8 9 10 11 11 11 11 12
13 11 11 10 10 14 7 7 8 8 8 9 10 7 6 4 4 5 6 6 6 6 5 4 4 3 2 1 2 2 3 4 4 6 7 9 10 11 11 11 11 11 13 14
13 14 12 9 10 9 7 7 7 8 11 7 10 9 8 6 7 7 8 8 8 7 7 7 6 5 4 3 3 3 4 5 6 8 9 10 11 11 10 10 11 12 13 15
12 13 15 14 12 12 9 6 7 9 7 7 8 8 9 10 7 5 8 9 9 10 9 9 9 8 7 6 6 6 6 7 8 9 10 11 11 10 10 11 11 13 14 15
16 14 13 13 13 13 6 6 9 7 8 8 9 9 10 11 9 9 10 11 11 12 12 12 11 11 10 9 8 8 8 8 9 10 10 10 10 10 10 11 12 13 14 16
20 18 15 15 13 11 12 11 10 11 11 10 11 12 12 13 13 12 12 13 13 14 14 14 13 13 12 12 11 10 9 10 10 11 11 10 10 10 10 11 12 13 15 16
23 20 19 16 19 19 18 18 15 15 15 15 14 14 15 15 16 16 15 15 15 16 16 16 16 15 15 14 13 12 11 11 11 11 11 11 11 11 11 12 13 14 15 16
22 20 22 22 22 18 21 23 21 20 20 19 19 19 19 19 18 18 18 17 17 17 18 18 18 17 17 16 15 14 13 12 12 12 12 12 11 11 12 12 13 14 15 17
26 23 23 22 21 23 21 20 22 21 22 22 21 21 20 19 19 20 20 20 20 20 19 20 19 19 18 17 16 15 14 13 13 12 12 12 12 12 13 13 14 15 16 17
Wind_Direction
342 338 355 349 349 342 333 328 324 335 337 331 336 326 334 328 318 302 289 270 258 249 242 239 234 226 222 223 230 237 197 209 212 218 220 218 220 222 226 232 233 234 235 237
326 341 351 342 341 339 338 335 340 331 334 333 338 313 329 348 335 318 299 280 263 251 246 239 230 226 221 222 222 219 209 207 208 206 212 218 220 226 232 236 238 238 237 238
328 347 346 344 344 349 344 349 336 322 329 317 342 307 308 343 337 327 313 299 272 257 244 236 230 226 220 221 223 226 201 210 211 207 211 215 219 227 234 238 240 242 240 239
326 342 341 345 349 353 342 351 341 333 336 345 1 341 344 345 339 334 326 304 282 261 244 234 227 225 222 221 221 225 223 218 213 213 218 219 226 231 242 243 245 245 243 244
354 336 343 344 353 351 346 347 352 349 336 345 354 342 335 352 342 337 330 321 296 267 244 234 224 220 221 220 221 224 224 216 212 211 219 221 226 236 244 247 254 251 247 247
326 336 344 346 343 347 344 344 349 347 344 0 2 1 351 355 347 341 345 333 303 270 250 228 216 213 214 216 216 221 226 230 211 209 218 222 231 248 248 254 254 257 252 245
325 335 347 350 348 360 2 5 10 9 9 11 2 2 7 358 359 360 355 357 350 281 232 210 196 199 203 204 210 216 218 221 228 221 229 234 250 247 254 261 262 259 253 247
336 330 351 356 2 354 0 7 17 4 5 356 358 10 9 5 17 19 18 22 34 47 163 179 172 179 191 196 202 208 214 219 223 230 229 227 237 251 270 263 264 267 255 249
338 339 349 355 353 1 3 11 11 4 5 356 16 25 23 18 19 22 28 33 46 60 95 139 151 162 177 185 191 199 206 214 221 224 228 234 247 263 267 271 284 264 242 247
352 326 346 349 345 356 3 6 5 17 7 3 16 28 13 12 16 24 30 35 45 64 93 115 132 143 154 163 173 181 191 197 204 220 229 236 252 268 255 264 269 262 248 254
340 330 351 342 348 350 354 6 6 1 11 6 359 28 13 15 19 29 39 43 49 66 89 112 122 130 142 151 162 170 176 182 190 205 224 238 248 258 262 269 279 267 257 260
349 331 322 338 344 336 342 351 354 0 2 359 359 23 17 22 37 39 47 50 58 70 86 102 109 116 130 140 149 162 176 186 198 209 219 226 250 264 276 273 273 263 263 260
339 326 321 319 327 330 323 338 337 342 347 344 3 23 17 31 48 43 48 54 65 74 85 93 101 106 119 139 144 152 165 194 205 212 225 227 233 245 260 251 264 268 271 264
318 309 303 310 323 315 308 311 305 323 333 351 352 4 22 26 39 49 58 67 68 77 87 101 104 99 108 125 136 139 140 130 165 191 196 213 219 224 268 269 279 279 281 283
304 308 307 299 298 297 297 295 289 273 286 316 354 345 357 13 38 54 71 78 79 87 93 95 102 104 103 112 114 130 125 135 143 160 175 190 226 258 276 284 287 287 286 284
298 309 314 309 299 298 292 290 281 270 276 283 297 309 344 24 58 74 86 94 99 101 106 107 109 107 109 113 116 118 122 128 144 167 218 259 270 279 284 285 287 288 287 289
289 303 313 314 315 306 292 301 268 261 269 267 290 351 320 282 250 190 146 138 130 126 129 127 123 118 117 119 124 131 151 197 244 267 272 277 282 286 287 287 288 288 291 291
281 285 297 306 313 297 319 308 308 263 271 261 274 282 270 266 251 229 211 196 181 171 164 156 150 148 150 150 164 224 263 272 274 278 284 288 288 289 289 288 289 289 291 295
265 272 288 296 306 300 300 290 284 267 275 260 257 255 254 253 246 244 230 225 215 210 206 205 202 197 198 220 257 273 279 280 283 288 291 294 295 294 292 291 292 294 296 300
254 261 273 284 296 299 313 290 290 287 281 269 255 243 238 237 249 257 225 228 226 224 223 222 222 226 235 246 262 282 286 284 287 292 294 295 296 294 292 292 294 297 301 304
248 254 255 266 282 292 291 280 281 279 297 282 257 243 237 242 266 266 230 229 230 231 232 231 232 238 242 248 260 274 283 291 293 293 296 298 297 293 292 293 298 302 305 308
241 245 256 258 268 280 261 287 279 286 286 277 260 257 251 250 261 253 243 238 236 235 236 237 240 243 245 249 258 269 280 290 295 297 297 298 295 295 293 297 301 305 309 312
249 251 256 249 270 274 250 290 276 283 276 273 266 265 261 258 256 252 248 244 244 242 241 241 244 245 247 251 256 264 275 286 294 296 296 297 295 296 296 300 305 308 312 315
247 245 254 256 262 261 265 266 275 276 273 271 268 267 264 263 258 252 251 250 248 247 245 245 245 246 248 251 256 261 269 281 291 293 294 294 294 297 300 304 308 311 314 317
248 239 248 255 262 270 270 267 269 272 271 269 266 265 267 264 261 254 253 252 252 250 250 248 248 248 248 248 253 257 264 275 287 291 291 292 292 293 298 305 310 313 316 319
243 249 246 254 260 261 273 270 269 268 269 270 264 262 264 264 261 256 256 255 254 253 251 249 248 248 246 246 250 254 261 271 281 286 288 291 290 291 296 303 308 311 316 319